Wetterdaten: Woche 07.01.19 - 13.01.19 (KW2)
Datum Zeit Temp. 2m rel. Feuchte Luftdruck Regen Wind Richtung Sonne ET UV-Index Solar Taupunkt Ben
07.01.2019 00:00 4,6 C 95 % 1034,2 hPa 0,0 mm 3,4 km/h (1 Bft) W-NW 0,00 h 0,0 mm 0,0 UV-I 0 W/m 3,8 C 8,4 km/h (2 Bft)
07.01.2019 01:00 4,4 C 95 % 1034,3 hPa 0,0 mm 5,3 km/h (1 Bft) W-NW 0,00 h 0,0 mm 0,0 UV-I 0 W/m 3,7 C 11,8 km/h (2 Bft)
07.01.2019 02:00 4,4 C 95 % 1034,4 hPa 0,0 mm 5,9 km/h (2 Bft) W 0,00 h 0,0 mm 0,0 UV-I 0 W/m 3,6 C 12,2 km/h (2 Bft)
07.01.2019 03:00 4,3 C 95 % 1034,4 hPa 0,0 mm 4,9 km/h (1 Bft) W-NW 0,00 h 0,0 mm 0,0 UV-I 0 W/m 3,6 C 11,3 km/h (2 Bft)
07.01.2019 04:00 4,2 C 94 % 1034,3 hPa 0,0 mm 4,5 km/h (1 Bft) W-NW 0,00 h 0,0 mm 0,0 UV-I 0 W/m 3,3 C 8,5 km/h (2 Bft)
07.01.2019 05:00 3,4 C 94 % 1034,0 hPa 0,0 mm 1,3 km/h (1 Bft) W-NW 0,00 h 0,0 mm 0,0 UV-I 0 W/m 2,5 C 3,2 km/h (1 Bft)
07.01.2019 06:00 2,5 C 94 % 1033,7 hPa 0,0 mm 0,2 km/h (0 Bft) W-NW 0,00 h 0,0 mm 0,0 UV-I 0 W/m 1,7 C 1,1 km/h (1 Bft)
07.01.2019 07:00 3,3 C 97 % 1033,8 hPa 0,0 mm 3,7 km/h (1 Bft) W-NW 0,00 h 0,0 mm 0,0 UV-I 0 W/m 2,8 C 9,3 km/h (2 Bft)
07.01.2019 08:00 3,7 C 95 % 1033,8 hPa 0,0 mm 2,4 km/h (1 Bft) W-SW 0,17 h 0,0 mm 0,0 UV-I 10 W/m 3,0 C 6,7 km/h (2 Bft)
07.01.2019 09:00 3,8 C 96 % 1033,8 hPa 0,0 mm 3,3 km/h (1 Bft) W-SW 0,08 h 0,0 mm 0,0 UV-I 29 W/m 3,2 C 9,8 km/h (2 Bft)
07.01.2019 10:00 4,6 C 95 % 1033,4 hPa 0,0 mm 1,6 km/h (1 Bft) SW 0,08 h 0,0 mm 0,6 UV-I 83 W/m 3,8 C 7,4 km/h (2 Bft)
07.01.2019 11:00 5,2 C 93 % 1033,0 hPa 0,0 mm 3,2 km/h (1 Bft) W 0,00 h 0,0 mm 0,6 UV-I 60 W/m 4,2 C 10,9 km/h (2 Bft)
07.01.2019 12:00 5,5 C 91 % 1032,4 hPa 0,0 mm 4,7 km/h (1 Bft) W-SW 0,00 h 0,0 mm 0,0 UV-I 30 W/m 4,1 C 14,2 km/h (3 Bft)
07.01.2019 13:00 5,6 C 91 % 1031,5 hPa 0,0 mm 4,6 km/h (1 Bft) SW 0,00 h 0,0 mm 0,0 UV-I 29 W/m 4,3 C 12,9 km/h (3 Bft)
07.01.2019 14:00 5,9 C 93 % 1030,7 hPa 0,0 mm 4,5 km/h (1 Bft) SW 0,00 h 0,0 mm 0,0 UV-I 21 W/m 4,8 C 12,9 km/h (3 Bft)
07.01.2019 15:00 6,0 C 95 % 1030,0 hPa 0,0 mm 4,3 km/h (1 Bft) SW 0,00 h 0,0 mm 0,0 UV-I 15 W/m 5,2 C 12,2 km/h (2 Bft)
07.01.2019 16:00 6,2 C 95 % 1029,1 hPa 0,0 mm 4,0 km/h (1 Bft) SW 0,00 h 0,0 mm 0,0 UV-I 7 W/m 5,5 C 12,6 km/h (3 Bft)
07.01.2019 17:00 6,5 C 96 % 1028,1 hPa 0,0 mm 5,8 km/h (2 Bft) W-SW 0,00 h 0,0 mm 0,0 UV-I 0 W/m 5,9 C 15,2 km/h (3 Bft)
07.01.2019 18:00 7,1 C 94 % 1027,2 hPa 0,2 mm 10,6 km/h (2 Bft) W-SW 0,00 h 0,0 mm 0,0 UV-I 0 W/m 6,2 C 24,1 km/h (4 Bft)
07.01.2019 19:00 7,4 C 93 % 1026,0 hPa 0,6 mm 12,8 km/h (3 Bft) W 0,00 h 0,0 mm 0,0 UV-I 0 W/m 6,3 C 29,4 km/h (5 Bft)
07.01.2019 20:00 7,3 C 95 % 1024,9 hPa 0,2 mm 12,8 km/h (3 Bft) W-SW 0,00 h 0,0 mm 0,0 UV-I 0 W/m 6,5 C 29,6 km/h (5 Bft)
07.01.2019 21:00 7,6 C 94 % 1023,5 hPa 0,0 mm 14,9 km/h (3 Bft) W-SW 0,00 h 0,0 mm 0,0 UV-I 0 W/m 6,7 C 32,0 km/h (5 Bft)
07.01.2019 22:00 7,5 C 95 % 1022,4 hPa 0,2 mm 15,6 km/h (3 Bft) W-NW 0,00 h 0,0 mm 0,0 UV-I 0 W/m 6,8 C 33,5 km/h (5 Bft)
07.01.2019 23:00 7,5 C 96 % 1021,0 hPa 0,6 mm 13,8 km/h (3 Bft) W 0,00 h 0,0 mm 0,0 UV-I 0 W/m 6,9 C 28,3 km/h (4 Bft)
08.01.2019 00:00 7,9 C 97 % 1019,8 hPa 0,8 mm 16,0 km/h (3 Bft) W 0,00 h 0,0 mm 0,0 UV-I 0 W/m 7,5 C 30,5 km/h (5 Bft)
08.01.2019 01:00 8,3 C 97 % 1019,0 hPa 0,8 mm 18,5 km/h (3 Bft) W-NW 0,00 h 0,0 mm 0,0 UV-I 0 W/m 7,8 C 39,3 km/h (6 Bft)
08.01.2019 02:00 7,1 C 95 % 1019,0 hPa 0,2 mm 4,0 km/h (1 Bft) W-NW 0,00 h 0,0 mm 0,0 UV-I 0 W/m 6,3 C 17,0 km/h (3 Bft)
08.01.2019 03:00 6,6 C 92 % 1018,8 hPa 0,0 mm 6,4 km/h (2 Bft) W-NW 0,00 h 0,0 mm 0,0 UV-I 0 W/m 5,3 C 23,9 km/h (4 Bft)
08.01.2019 04:00 6,6 C 89 % 1018,3 hPa 0,0 mm 12,8 km/h (3 Bft) W 0,00 h 0,0 mm 0,0 UV-I 0 W/m 4,9 C 32,2 km/h (5 Bft)
08.01.2019 05:00 6,2 C 89 % 1017,8 hPa 0,0 mm 14,5 km/h (3 Bft) W 0,00 h 0,0 mm 0,0 UV-I 0 W/m 4,4 C 35,9 km/h (5 Bft)
08.01.2019 06:00 6,1 C 89 % 1017,1 hPa 0,0 mm 19,6 km/h (3 Bft) W-NW 0,00 h 0,0 mm 0,0 UV-I 0 W/m 4,4 C 37,9 km/h (5 Bft)
08.01.2019 07:00 6,2 C 87 % 1016,3 hPa 0,0 mm 21,4 km/h (4 Bft) W 0,00 h 0,0 mm 0,0 UV-I 0 W/m 4,3 C 46,6 km/h (6 Bft)
08.01.2019 08:00 6,4 C 87 % 1016,1 hPa 0,0 mm 17,1 km/h (3 Bft) W-NW 0,00 h 0,0 mm 0,0 UV-I 3 W/m 4,3 C 41,8 km/h (6 Bft)
08.01.2019 09:00 6,1 C 87 % 1015,9 hPa 0,0 mm 18,0 km/h (3 Bft) W-NW 0,00 h 0,0 mm 0,2 UV-I 28 W/m 4,2 C 43,7 km/h (6 Bft)
08.01.2019 10:00 6,2 C 87 % 1015,8 hPa 0,0 mm 16,0 km/h (3 Bft) W-NW 0,00 h 0,0 mm 0,3 UV-I 46 W/m 4,2 C 43,1 km/h (6 Bft)
08.01.2019 11:00 6,7 C 87 % 1015,6 hPa 0,0 mm 15,1 km/h (3 Bft) W-NW 0,00 h 0,0 mm 0,5 UV-I 74 W/m 4,6 C 39,8 km/h (6 Bft)
08.01.2019 12:00 7,0 C 86 % 1015,2 hPa 0,0 mm 15,2 km/h (3 Bft) W-NW 0,00 h 0,1 mm 0,6 UV-I 67 W/m 4,7 C 40,0 km/h (6 Bft)
08.01.2019 13:00 7,2 C 84 % 1014,8 hPa 0,2 mm 12,0 km/h (2 Bft) NW 0,00 h 0,1 mm 0,6 UV-I 77 W/m 4,7 C 39,6 km/h (6 Bft)
08.01.2019 14:00 6,3 C 90 % 1014,9 hPa 0,6 mm 6,0 km/h (2 Bft) W-NW 0,00 h 0,1 mm 0,4 UV-I 39 W/m 4,7 C 19,6 km/h (3 Bft)
08.01.2019 15:00 5,7 C 92 % 1015,2 hPa 0,2 mm 3,6 km/h (1 Bft) W-NW 0,08 h 0,0 mm 0,1 UV-I 33 W/m 4,6 C 13,1 km/h (3 Bft)
08.01.2019 16:00 6,2 C 87 % 1015,4 hPa 0,0 mm 6,2 km/h (2 Bft) NW 0,08 h 0,0 mm 0,0 UV-I 9 W/m 4,2 C 21,7 km/h (4 Bft)
08.01.2019 17:00 6,0 C 86 % 1015,9 hPa 0,0 mm 6,2 km/h (2 Bft) NW 0,00 h 0,0 mm 0,0 UV-I 0 W/m 3,8 C 24,8 km/h (4 Bft)
08.01.2019 18:00 6,1 C 84 % 1015,8 hPa 0,0 mm 8,0 km/h (2 Bft) NW 0,00 h 0,0 mm 0,0 UV-I 0 W/m 3,6 C 27,9 km/h (4 Bft)
08.01.2019 19:00 6,1 C 82 % 1015,9 hPa 0,0 mm 7,1 km/h (2 Bft) W-NW 0,00 h 0,0 mm 0,0 UV-I 0 W/m 3,3 C 22,8 km/h (4 Bft)
08.01.2019 20:00 6,0 C 82 % 1016,0 hPa 0,0 mm 6,5 km/h (2 Bft) W-NW 0,00 h 0,0 mm 0,0 UV-I 0 W/m 3,2 C 21,5 km/h (4 Bft)
08.01.2019 21:00 5,6 C 84 % 1016,2 hPa 0,0 mm 5,2 km/h (1 Bft) W-NW 0,00 h 0,0 mm 0,0 UV-I 0 W/m 3,1 C 17,0 km/h (3 Bft)
08.01.2019 22:00 5,0 C 87 % 1016,2 hPa 0,0 mm 5,7 km/h (1 Bft) W-NW 0,00 h 0,0 mm 0,0 UV-I 0 W/m 3,1 C 18,3 km/h (3 Bft)
08.01.2019 23:00 4,9 C 88 % 1016,0 hPa 0,0 mm 4,8 km/h (1 Bft) W 0,00 h 0,0 mm 0,0 UV-I 0 W/m 3,1 C 18,0 km/h (3 Bft)
09.01.2019 00:00 4,8 C 89 % 1015,7 hPa 0,2 mm 4,4 km/h (1 Bft) W-NW 0,00 h 0,0 mm 0,0 UV-I 0 W/m 3,1 C 16,6 km/h (3 Bft)
09.01.2019 01:00 4,6 C 90 % 1015,5 hPa 0,0 mm 4,5 km/h (1 Bft) W-NW 0,00 h 0,0 mm 0,0 UV-I 0 W/m 3,1 C 15,5 km/h (3 Bft)
09.01.2019 02:00 4,5 C 87 % 1015,7 hPa 0,2 mm 4,7 km/h (1 Bft) W 0,00 h 0,0 mm 0,0 UV-I 0 W/m 2,6 C 15,3 km/h (3 Bft)
09.01.2019 03:00 4,4 C 86 % 1015,9 hPa 0,0 mm 6,0 km/h (2 Bft) W-NW 0,00 h 0,0 mm 0,0 UV-I 0 W/m 2,2 C 22,2 km/h (4 Bft)
09.01.2019 04:00 4,2 C 88 % 1016,0 hPa 0,0 mm 3,0 km/h (1 Bft) NW 0,00 h 0,0 mm 0,0 UV-I 0 W/m 2,3 C 10,2 km/h (2 Bft)
09.01.2019 05:00 3,7 C 89 % 1015,9 hPa 0,0 mm 2,0 km/h (1 Bft) W-NW 0,00 h 0,0 mm 0,0 UV-I 0 W/m 1,9 C 8,0 km/h (2 Bft)
09.01.2019 06:00 3,4 C 90 % 1015,9 hPa 0,0 mm 3,2 km/h (1 Bft) NW 0,00 h 0,0 mm 0,0 UV-I 0 W/m 1,8 C 10,6 km/h (2 Bft)
09.01.2019 07:00 3,1 C 90 % 1016,0 hPa 0,0 mm 2,2 km/h (1 Bft) NW 0,00 h 0,0 mm 0,0 UV-I 0 W/m 1,6 C 9,3 km/h (2 Bft)
09.01.2019 08:00 2,8 C 91 % 1016,7 hPa 0,0 mm 1,2 km/h (1 Bft) NW 0,00 h 0,0 mm 0,0 UV-I 9 W/m 1,4 C 5,5 km/h (1 Bft)
09.01.2019 09:00 3,0 C 92 % 1017,1 hPa 0,2 mm 0,8 km/h (0 Bft) N-NO 0,92 h 0,0 mm 0,2 UV-I 69 W/m 1,8 C 4,6 km/h (1 Bft)
09.01.2019 10:00 3,7 C 89 % 1017,8 hPa 0,0 mm 1,5 km/h (1 Bft) N-NW 0,75 h 0,0 mm 0,4 UV-I 139 W/m 2,1 C 6,7 km/h (2 Bft)
09.01.2019 11:00 4,5 C 86 % 1018,0 hPa 0,0 mm 2,0 km/h (1 Bft) N-NW 0,75 h 0,1 mm 0,5 UV-I 213 W/m 2,4 C 6,1 km/h (2 Bft)
09.01.2019 12:00 5,3 C 81 % 1017,9 hPa 0,0 mm 2,3 km/h (1 Bft) N-NO 0,42 h 0,1 mm 0,6 UV-I 164 W/m 2,2 C 7,8 km/h (2 Bft)
09.01.2019 13:00 5,6 C 72 % 1017,7 hPa 0,0 mm 1,7 km/h (1 Bft) N-NO 0,08 h 0,1 mm 0,6 UV-I 104 W/m 1,0 C 5,3 km/h (1 Bft)
09.01.2019 14:00 5,7 C 69 % 1018,0 hPa 0,0 mm 1,8 km/h (1 Bft) N-NO 0,08 h 0,1 mm 0,4 UV-I 76 W/m 0,5 C 6,7 km/h (2 Bft)
09.01.2019 15:00 5,8 C 66 % 1018,4 hPa 0,0 mm 2,1 km/h (1 Bft) N 0,33 h 0,0 mm 0,4 UV-I 68 W/m -0,0 C 6,6 km/h (2 Bft)
09.01.2019 16:00 5,2 C 65 % 1018,9 hPa 0,0 mm 2,0 km/h (1 Bft) N-NO 0,42 h 0,0 mm 0,0 UV-I 25 W/m -0,8 C 7,2 km/h (2 Bft)
09.01.2019 17:00 4,5 C 68 % 1019,5 hPa 0,0 mm 1,2 km/h (1 Bft) N-NO 0,00 h 0,0 mm 0,0 UV-I 0 W/m -0,9 C 5,0 km/h (1 Bft)
09.01.2019 18:00 4,3 C 70 % 1020,1 hPa 0,0 mm 1,2 km/h (1 Bft) NO 0,00 h 0,0 mm 0,0 UV-I 0 W/m -0,6 C 5,2 km/h (1 Bft)
09.01.2019 19:00 3,9 C 71 % 1020,8 hPa 0,0 mm 1,6 km/h (1 Bft) N-NW 0,00 h 0,0 mm 0,0 UV-I 0 W/m -0,8 C 5,9 km/h (2 Bft)
09.01.2019 20:00 3,4 C 74 % 1021,4 hPa 0,0 mm 0,8 km/h (0 Bft) N-NO 0,00 h 0,0 mm 0,0 UV-I 0 W/m -0,8 C 4,4 km/h (1 Bft)
09.01.2019 21:00 3,3 C 72 % 1021,9 hPa 0,0 mm 0,6 km/h (0 Bft) N 0,00 h 0,0 mm 0,0 UV-I 0 W/m -1,3 C 4,6 km/h (1 Bft)
09.01.2019 22:00 2,9 C 75 % 1022,5 hPa 0,0 mm 0,1 km/h (0 Bft) N 0,00 h 0,0 mm 0,0 UV-I 0 W/m -1,0 C 0,7 km/h (0 Bft)
09.01.2019 23:00 2,7 C 77 % 1023,0 hPa 0,0 mm 0,1 km/h (0 Bft) N 0,00 h 0,0 mm 0,0 UV-I 0 W/m -1,0 C 0,7 km/h (0 Bft)
10.01.2019 00:00 2,2 C 80 % 1023,3 hPa 0,0 mm 0,0 km/h (0 Bft) N 0,00 h 0,0 mm 0,0 UV-I 0 W/m -0,8 C 0,0 km/h (0 Bft)
10.01.2019 01:00 1,9 C 82 % 1023,7 hPa 0,0 mm 0,0 km/h (0 Bft) N 0,00 h 0,0 mm 0,0 UV-I 0 W/m -0,9 C 0,0 km/h (0 Bft)
10.01.2019 02:00 1,4 C 86 % 1024,1 hPa 0,0 mm 0,0 km/h (0 Bft) N 0,00 h 0,0 mm 0,0 UV-I 0 W/m -0,8 C 0,0 km/h (0 Bft)
10.01.2019 03:00 1,3 C 87 % 1024,7 hPa 0,0 mm 0,0 km/h (0 Bft) N 0,00 h 0,0 mm 0,0 UV-I 0 W/m -0,6 C 0,0 km/h (0 Bft)
10.01.2019 04:00 1,1 C 88 % 1024,9 hPa 0,0 mm 0,0 km/h (0 Bft) N 0,00 h 0,0 mm 0,0 UV-I 0 W/m -0,7 C 0,0 km/h (0 Bft)
10.01.2019 05:00 0,7 C 89 % 1024,9 hPa 0,0 mm 0,0 km/h (0 Bft) N 0,00 h 0,0 mm 0,0 UV-I 0 W/m -0,9 C 0,0 km/h (0 Bft)
10.01.2019 06:00 0,5 C 90 % 1025,2 hPa 0,0 mm 0,0 km/h (0 Bft) N 0,00 h 0,0 mm 0,0 UV-I 0 W/m -0,9 C 0,0 km/h (0 Bft)
10.01.2019 07:00 0,4 C 90 % 1025,4 hPa 0,0 mm 0,0 km/h (0 Bft) N 0,00 h 0,0 mm 0,0 UV-I 0 W/m -1,0 C 0,0 km/h (0 Bft)
10.01.2019 08:00 0,2 C 91 % 1026,0 hPa 0,0 mm 0,0 km/h (0 Bft) N 0,00 h 0,0 mm 0,0 UV-I 9 W/m -1,1 C 0,0 km/h (0 Bft)
10.01.2019 09:00 0,3 C 93 % 1026,4 hPa 0,0 mm 0,3 km/h (0 Bft) N 0,00 h 0,0 mm 0,0 UV-I 33 W/m -0,8 C 2,4 km/h (1 Bft)
10.01.2019 10:00 0,7 C 92 % 1027,0 hPa 0,0 mm 0,1 km/h (0 Bft) W 0,00 h 0,0 mm 0,5 UV-I 80 W/m -0,4 C 0,7 km/h (0 Bft)
10.01.2019 11:00 1,4 C 90 % 1027,0 hPa 0,0 mm 1,0 km/h (0 Bft) W 0,42 h 0,0 mm 0,5 UV-I 159 W/m -0,1 C 4,6 km/h (1 Bft)
10.01.2019 12:00 1,9 C 88 % 1027,1 hPa 0,0 mm 0,8 km/h (0 Bft) W-NW 0,17 h 0,1 mm 0,5 UV-I 147 W/m 0,1 C 4,6 km/h (1 Bft)
10.01.2019 13:00 2,0 C 88 % 1026,8 hPa 0,0 mm 1,2 km/h (1 Bft) W 0,00 h 0,1 mm 0,5 UV-I 104 W/m 0,2 C 4,8 km/h (1 Bft)
10.01.2019 14:00 2,4 C 88 % 1026,7 hPa 0,0 mm 0,9 km/h (0 Bft) W 0,08 h 0,0 mm 0,6 UV-I 113 W/m 0,5 C 4,4 km/h (1 Bft)
10.01.2019 15:00 2,4 C 88 % 1026,6 hPa 0,0 mm 0,3 km/h (0 Bft) N 0,17 h 0,0 mm 0,5 UV-I 69 W/m 0,6 C 3,1 km/h (1 Bft)
10.01.2019 16:00 2,2 C 89 % 1026,8 hPa 0,0 mm 0,1 km/h (0 Bft) N 0,00 h 0,0 mm 0,0 UV-I 19 W/m 0,5 C 1,5 km/h (1 Bft)
10.01.2019 17:00 2,0 C 90 % 1026,8 hPa 0,0 mm 0,1 km/h (0 Bft) N 0,00 h 0,0 mm 0,0 UV-I 0 W/m 0,4 C 0,9 km/h (0 Bft)
10.01.2019 18:00 1,8 C 90 % 1026,9 hPa 0,0 mm 1,3 km/h (1 Bft) W 0,00 h 0,0 mm 0,0 UV-I 0 W/m 0,4 C 4,3 km/h (1 Bft)
10.01.2019 19:00 1,8 C 91 % 1027,0 hPa 0,0 mm 2,0 km/h (1 Bft) W 0,00 h 0,0 mm 0,0 UV-I 0 W/m 0,5 C 5,7 km/h (1 Bft)
10.01.2019 20:00 1,9 C 93 % 1027,1 hPa 0,0 mm 2,4 km/h (1 Bft) W 0,00 h 0,0 mm 0,0 UV-I 0 W/m 0,8 C 5,9 km/h (2 Bft)
10.01.2019 21:00 1,9 C 93 % 1027,1 hPa 0,0 mm 0,8 km/h (0 Bft) W 0,00 h 0,0 mm 0,0 UV-I 0 W/m 0,8 C 2,0 km/h (1 Bft)
10.01.2019 22:00 1,6 C 93 % 1027,2 hPa 0,0 mm 0,0 km/h (0 Bft) N 0,00 h 0,0 mm 0,0 UV-I 0 W/m 0,6 C 1,1 km/h (1 Bft)
10.01.2019 23:00 1,7 C 94 % 1027,2 hPa 0,0 mm 0,7 km/h (0 Bft) W 0,00 h 0,0 mm 0,0 UV-I 0 W/m 0,8 C 4,8 km/h (1 Bft)
11.01.2019 00:00 1,8 C 94 % 1027,0 hPa 0,0 mm 0,7 km/h (0 Bft) W-NW 0,00 h 0,0 mm 0,0 UV-I 0 W/m 0,9 C 3,7 km/h (1 Bft)
11.01.2019 01:00 1,7 C 94 % 1026,7 hPa 0,0 mm 1,0 km/h (0 Bft) W 0,00 h 0,0 mm 0,0 UV-I 0 W/m 0,9 C 4,4 km/h (1 Bft)
11.01.2019 02:00 1,6 C 95 % 1026,4 hPa 0,2 mm 1,3 km/h (1 Bft) W 0,00 h 0,0 mm 0,0 UV-I 0 W/m 0,9 C 5,0 km/h (1 Bft)
11.01.2019 03:00 1,6 C 95 % 1026,0 hPa 0,2 mm 1,6 km/h (1 Bft) SW 0,00 h 0,0 mm 0,0 UV-I 0 W/m 0,9 C 8,5 km/h (2 Bft)
11.01.2019 04:00 1,6 C 95 % 1025,2 hPa 0,0 mm 4,2 km/h (1 Bft) W-SW 0,00 h 0,0 mm 0,0 UV-I 0 W/m 1,0 C 12,0 km/h (2 Bft)
11.01.2019 05:00 1,9 C 96 % 1024,7 hPa 0,2 mm 5,1 km/h (1 Bft) W 0,00 h 0,0 mm 0,0 UV-I 0 W/m 1,3 C 13,7 km/h (3 Bft)
11.01.2019 06:00 2,1 C 96 % 1024,2 hPa 0,2 mm 3,0 km/h (1 Bft) W 0,00 h 0,0 mm 0,0 UV-I 0 W/m 1,6 C 10,4 km/h (2 Bft)
11.01.2019 07:00 2,4 C 97 % 1024,2 hPa 0,4 mm 3,7 km/h (1 Bft) W 0,00 h 0,0 mm 0,0 UV-I 0 W/m 1,9 C 10,4 km/h (2 Bft)
11.01.2019 08:00 2,6 C 97 % 1024,3 hPa 0,0 mm 0,9 km/h (0 Bft) W 0,00 h 0,0 mm 0,0 UV-I 0 W/m 2,2 C 4,1 km/h (1 Bft)
11.01.2019 09:00 2,9 C 97 % 1024,3 hPa 0,2 mm 9,6 km/h (2 Bft) W-NW 0,00 h 0,0 mm 0,0 UV-I 8 W/m 2,5 C 20,9 km/h (4 Bft)
11.01.2019 10:00 3,3 C 97 % 1024,5 hPa 0,2 mm 7,9 km/h (2 Bft) W-NW 0,00 h 0,0 mm 0,0 UV-I 28 W/m 2,9 C 18,5 km/h (3 Bft)
11.01.2019 11:00 3,7 C 97 % 1024,3 hPa 0,0 mm 12,5 km/h (3 Bft) W 0,00 h 0,0 mm 0,7 UV-I 34 W/m 3,3 C 23,9 km/h (4 Bft)
11.01.2019 12:00 4,3 C 97 % 1024,0 hPa 0,0 mm 14,4 km/h (3 Bft) NW 0,00 h 0,0 mm 0,6 UV-I 70 W/m 3,9 C 28,7 km/h (4 Bft)
11.01.2019 13:00 4,5 C 97 % 1023,6 hPa 0,0 mm 15,9 km/h (3 Bft) W-NW 0,00 h 0,0 mm 0,4 UV-I 49 W/m 4,2 C 29,4 km/h (5 Bft)
11.01.2019 14:00 5,2 C 98 % 1023,2 hPa 0,0 mm 15,6 km/h (3 Bft) W-NW 0,00 h 0,0 mm 0,5 UV-I 48 W/m 4,8 C 30,0 km/h (5 Bft)
11.01.2019 15:00 5,5 C 98 % 1022,8 hPa 0,0 mm 10,6 km/h (2 Bft) W 0,00 h 0,0 mm 0,0 UV-I 24 W/m 5,2 C 22,8 km/h (4 Bft)
11.01.2019 16:00 6,2 C 98 % 1022,8 hPa 0,2 mm 3,1 km/h (1 Bft) W 0,00 h 0,0 mm 0,0 UV-I 11 W/m 5,9 C 11,5 km/h (2 Bft)
11.01.2019 17:00 6,5 C 98 % 1022,9 hPa 0,2 mm 1,2 km/h (1 Bft) W 0,00 h 0,0 mm 0,0 UV-I 0 W/m 6,2 C 5,3 km/h (1 Bft)
11.01.2019 18:00 6,6 C 98 % 1023,2 hPa 0,0 mm 1,4 km/h (1 Bft) W-NW 0,00 h 0,0 mm 0,0 UV-I 0 W/m 6,3 C 6,8 km/h (2 Bft)
11.01.2019 19:00 6,6 C 97 % 1023,4 hPa 0,2 mm 1,9 km/h (1 Bft) W 0,00 h 0,0 mm 0,0 UV-I 0 W/m 6,2 C 9,1 km/h (2 Bft)
11.01.2019 20:00 6,6 C 97 % 1023,7 hPa 0,0 mm 1,8 km/h (1 Bft) W-NW 0,00 h 0,0 mm 0,0 UV-I 0 W/m 6,2 C 7,8 km/h (2 Bft)
11.01.2019 21:00 6,5 C 97 % 1023,9 hPa 0,0 mm 2,2 km/h (1 Bft) NW 0,00 h 0,0 mm 0,0 UV-I 0 W/m 6,1 C 8,7 km/h (2 Bft)
11.01.2019 22:00 6,6 C 96 % 1024,0 hPa 0,0 mm 2,8 km/h (1 Bft) W-NW 0,00 h 0,0 mm 0,0 UV-I 0 W/m 6,0 C 11,7 km/h (2 Bft)
11.01.2019 23:00 6,6 C 96 % 1024,1 hPa 0,0 mm 2,5 km/h (1 Bft) W-NW 0,00 h 0,0 mm 0,0 UV-I 0 W/m 6,0 C 8,5 km/h (2 Bft)
12.01.2019 00:00 6,3 C 96 % 1024,1 hPa 0,0 mm 2,6 km/h (1 Bft) W-NW 0,00 h 0,0 mm 0,0 UV-I 0 W/m 5,7 C 12,2 km/h (2 Bft)
12.01.2019 01:00 6,2 C 95 % 1024,1 hPa 0,0 mm 3,8 km/h (1 Bft) W-NW 0,00 h 0,0 mm 0,0 UV-I 0 W/m 5,5 C 14,6 km/h (3 Bft)
12.01.2019 02:00 6,1 C 95 % 1024,0 hPa 0,0 mm 3,8 km/h (1 Bft) W 0,00 h 0,0 mm 0,0 UV-I 0 W/m 5,4 C 15,4 km/h (3 Bft)
12.01.2019 03:00 6,0 C 96 % 1023,8 hPa 0,0 mm 5,3 km/h (1 Bft) W 0,00 h 0,0 mm 0,0 UV-I 0 W/m 5,4 C 17,4 km/h (3 Bft)
12.01.2019 04:00 6,0 C 95 % 1023,3 hPa 0,2 mm 8,0 km/h (2 Bft) W-NW 0,00 h 0,0 mm 0,0 UV-I 0 W/m 5,3 C 19,2 km/h (3 Bft)
12.01.2019 05:00 5,8 C 95 % 1022,9 hPa 0,0 mm 7,1 km/h (2 Bft) W 0,00 h 0,0 mm 0,0 UV-I 0 W/m 5,1 C 20,2 km/h (4 Bft)
12.01.2019 06:00 5,7 C 96 % 1022,9 hPa 0,0 mm 7,1 km/h (2 Bft) W-NW 0,00 h 0,0 mm 0,0 UV-I 0 W/m 5,0 C 18,9 km/h (3 Bft)
12.01.2019 07:00 5,5 C 94 % 1022,7 hPa 0,0 mm 7,2 km/h (2 Bft) W 0,00 h 0,0 mm 0,0 UV-I 0 W/m 4,7 C 17,0 km/h (3 Bft)
12.01.2019 08:00 5,6 C 90 % 1022,0 hPa 0,0 mm 12,2 km/h (2 Bft) W 0,00 h 0,0 mm 0,0 UV-I 0 W/m 4,1 C 25,2 km/h (4 Bft)
12.01.2019 09:00 5,6 C 90 % 1021,3 hPa 0,0 mm 11,1 km/h (2 Bft) W-SW 0,00 h 0,0 mm 0,0 UV-I 15 W/m 4,1 C 22,8 km/h (4 Bft)
12.01.2019 10:00 5,9 C 88 % 1020,8 hPa 0,0 mm 10,9 km/h (2 Bft) W-SW 0,00 h 0,0 mm 0,4 UV-I 37 W/m 4,0 C 21,6 km/h (4 Bft)
12.01.2019 11:00 6,2 C 85 % 1019,6 hPa 0,0 mm 11,4 km/h (2 Bft) W-NW 0,00 h 0,0 mm 0,0 UV-I 37 W/m 3,9 C 25,9 km/h (4 Bft)
12.01.2019 12:00 6,5 C 85 % 1018,7 hPa 0,0 mm 16,6 km/h (3 Bft) W-SW 0,00 h 0,0 mm 0,5 UV-I 60 W/m 4,1 C 35,4 km/h (5 Bft)
12.01.2019 13:00 6,3 C 91 % 1017,2 hPa 0,4 mm 14,7 km/h (3 Bft) W-NW 0,00 h 0,1 mm 0,4 UV-I 52 W/m 4,8 C 30,2 km/h (5 Bft)
12.01.2019 14:00 6,3 C 94 % 1016,0 hPa 0,4 mm 17,5 km/h (3 Bft) W-NW 0,00 h 0,0 mm 0,0 UV-I 25 W/m 5,4 C 35,7 km/h (5 Bft)
12.01.2019 15:00 6,6 C 95 % 1015,3 hPa 0,0 mm 17,4 km/h (3 Bft) W-NW 0,00 h 0,0 mm 0,0 UV-I 31 W/m 5,8 C 37,0 km/h (5 Bft)
12.01.2019 16:00 6,8 C 95 % 1014,9 hPa 0,6 mm 17,1 km/h (3 Bft) W 0,00 h 0,0 mm 0,0 UV-I 10 W/m 6,1 C 33,5 km/h (5 Bft)
12.01.2019 17:00 7,1 C 96 % 1014,4 hPa 0,2 mm 16,9 km/h (3 Bft) W 0,00 h 0,0 mm 0,0 UV-I 0 W/m 6,5 C 37,2 km/h (5 Bft)
12.01.2019 18:00 7,2 C 95 % 1014,0 hPa 0,0 mm 13,8 km/h (3 Bft) W-NW 0,00 h 0,0 mm 0,0 UV-I 0 W/m 6,4 C 29,4 km/h (5 Bft)
12.01.2019 19:00 7,2 C 95 % 1013,8 hPa 1,0 mm 7,8 km/h (2 Bft) W-NW 0,00 h 0,0 mm 0,0 UV-I 0 W/m 6,4 C 21,8 km/h (4 Bft)
12.01.2019 20:00 6,7 C 96 % 1013,9 hPa 2,0 mm 1,7 km/h (1 Bft) W 0,00 h 0,0 mm 0,0 UV-I 0 W/m 6,1 C 9,4 km/h (2 Bft)
12.01.2019 21:00 6,6 C 96 % 1013,5 hPa 0,0 mm 5,6 km/h (1 Bft) W-NW 0,00 h 0,0 mm 0,0 UV-I 0 W/m 6,1 C 20,7 km/h (4 Bft)
12.01.2019 22:00 6,6 C 96 % 1013,3 hPa 0,6 mm 6,4 km/h (2 Bft) W 0,00 h 0,0 mm 0,0 UV-I 0 W/m 6,0 C 21,6 km/h (4 Bft)
12.01.2019 23:00 6,7 C 96 % 1013,2 hPa 0,2 mm 7,3 km/h (2 Bft) W-NW 0,00 h 0,0 mm 0,0 UV-I 0 W/m 6,1 C 21,3 km/h (4 Bft)
13.01.2019 00:00 7,0 C 96 % 1013,1 hPa 0,0 mm 12,3 km/h (3 Bft) W 0,00 h 0,0 mm 0,0 UV-I 0 W/m 6,3 C 27,6 km/h (4 Bft)
13.01.2019 01:00 7,2 C 95 % 1012,9 hPa 0,0 mm 10,3 km/h (2 Bft) W-NW 0,00 h 0,0 mm 0,0 UV-I 0 W/m 6,4 C 27,0 km/h (4 Bft)
13.01.2019 02:00 7,2 C 95 % 1012,6 hPa 0,0 mm 8,4 km/h (2 Bft) W-NW 0,00 h 0,0 mm 0,0 UV-I 0 W/m 6,5 C 22,2 km/h (4 Bft)
13.01.2019 03:00 7,2 C 95 % 1012,0 hPa 0,0 mm 13,5 km/h (3 Bft) W-NW 0,00 h 0,0 mm 0,0 UV-I 0 W/m 6,5 C 28,7 km/h (4 Bft)
13.01.2019 04:00 7,2 C 97 % 1011,7 hPa 0,2 mm 14,5 km/h (3 Bft) W-NW 0,00 h 0,0 mm 0,0 UV-I 0 W/m 6,7 C 27,4 km/h (4 Bft)
13.01.2019 05:00 7,2 C 96 % 1010,6 hPa 0,0 mm 12,8 km/h (3 Bft) W-NW 0,00 h 0,0 mm 0,0 UV-I 0 W/m 6,6 C 25,6 km/h (4 Bft)
13.01.2019 06:00 7,3 C 96 % 1009,4 hPa 0,0 mm 13,2 km/h (3 Bft) W-SW 0,00 h 0,0 mm 0,0 UV-I 0 W/m 6,8 C 27,6 km/h (4 Bft)
13.01.2019 07:00 7,7 C 97 % 1008,7 hPa 1,2 mm 14,0 km/h (3 Bft) W 0,00 h 0,0 mm 0,0 UV-I 0 W/m 7,1 C 28,2 km/h (4 Bft)
13.01.2019 08:00 8,0 C 97 % 1008,4 hPa 0,8 mm 17,4 km/h (3 Bft) W 0,00 h 0,0 mm 0,0 UV-I 4 W/m 7,6 C 35,0 km/h (5 Bft)
13.01.2019 09:00 8,4 C 97 % 1007,9 hPa 0,2 mm 21,1 km/h (4 Bft) W 0,00 h 0,0 mm 0,0 UV-I 10 W/m 7,9 C 43,7 km/h (6 Bft)
13.01.2019 10:00 8,5 C 97 % 1007,5 hPa 0,4 mm 20,9 km/h (4 Bft) W-NW 0,00 h 0,0 mm 0,0 UV-I 19 W/m 8,0 C 40,7 km/h (6 Bft)
13.01.2019 11:00 8,5 C 97 % 1006,9 hPa 0,4 mm 23,1 km/h (4 Bft) W-NW 0,00 h 0,0 mm 0,0 UV-I 27 W/m 8,0 C 42,0 km/h (6 Bft)
13.01.2019 12:00 8,6 C 97 % 1005,8 hPa 0,8 mm 24,9 km/h (4 Bft) W-NW 0,00 h 0,0 mm 0,5 UV-I 49 W/m 8,2 C 47,4 km/h (6 Bft)
13.01.2019 13:00 8,7 C 97 % 1004,9 hPa 0,8 mm 24,2 km/h (4 Bft) W 0,00 h 0,0 mm 0,0 UV-I 34 W/m 8,3 C 45,7 km/h (6 Bft)
13.01.2019 14:00 8,7 C 97 % 1004,1 hPa 0,4 mm 21,6 km/h (4 Bft) W-NW 0,00 h 0,0 mm 0,0 UV-I 27 W/m 8,3 C 36,2 km/h (5 Bft)
13.01.2019 15:00 8,7 C 97 % 1003,6 hPa 0,4 mm 19,0 km/h (3 Bft) W 0,00 h 0,0 mm 0,0 UV-I 15 W/m 8,3 C 39,1 km/h (6 Bft)
13.01.2019 16:00 8,6 C 97 % 1003,2 hPa 0,2 mm 17,0 km/h (3 Bft) W-NW 0,00 h 0,0 mm 0,0 UV-I 6 W/m 8,2 C 38,7 km/h (5 Bft)
13.01.2019 17:00 8,6 C 96 % 1003,2 hPa 0,0 mm 13,8 km/h (3 Bft) W-NW 0,00 h 0,0 mm 0,0 UV-I 0 W/m 8,0 C 36,8 km/h (5 Bft)
13.01.2019 18:00 8,6 C 94 % 1002,6 hPa 0,2 mm 12,6 km/h (3 Bft) W-NW 0,00 h 0,0 mm 0,0 UV-I 0 W/m 7,8 C 36,1 km/h (5 Bft)
13.01.2019 19:00 8,3 C 94 % 1002,3 hPa 0,4 mm 11,1 km/h (2 Bft) W-NW 0,00 h 0,0 mm 0,0 UV-I 0 W/m 7,4 C 34,2 km/h (5 Bft)
13.01.2019 20:00 8,2 C 90 % 1002,6 hPa 0,0 mm 9,3 km/h (2 Bft) N 0,00 h 0,0 mm 0,0 UV-I 0 W/m 6,6 C 28,1 km/h (4 Bft)
13.01.2019 21:00 6,9 C 93 % 1003,3 hPa 0,2 mm 4,5 km/h (1 Bft) NW 0,00 h 0,0 mm 0,0 UV-I 0 W/m 5,9 C 15,6 km/h (3 Bft)
13.01.2019 22:00 7,1 C 93 % 1003,7 hPa 0,0 mm 6,5 km/h (2 Bft) W 0,00 h 0,0 mm 0,0 UV-I 0 W/m 6,0 C 24,8 km/h (4 Bft)
13.01.2019 23:00 6,9 C 91 % 1004,2 hPa 0,0 mm 6,7 km/h (2 Bft) NW 0,00 h 0,0 mm 0,0 UV-I 0 W/m 5,4 C 26,5 km/h (4 Bft)
Min-Datum _ 10.01.19 09.01.19 13.01.19 - 07.01.19 - - - - - 09.01.19 07.01.19
_ Min-Zeit 08:10 16:55 19:40 - 05:25 - - - - - 21:25 05:25
Minimum _ 0,1 C 63 % 1002,1 hPa - 0,0 km/h (0 Bft) - - - - - -1,6 C 0,0 km/h (0 Bft)
Max-Datum _ 13.01.19 11.01.19 07.01.19 12.01.19 13.01.19 - 07.01.19 09.01.19 08.01.19 09.01.19 13.01.19 08.01.19
_ Max-Zeit 14:20 12:35 01:15 20:00 11:45 - 08:50 12:00 12:55 12:00 14:15 13:35
Maximum _ 8,9 C 98 % 1034,5 hPa 2,0 mm 27,4 km/h
W-NW (4 Bft)
- 0,08 h 0,1 mm 0,9 UV-I 284 W/m 8,4 C 60,0 km/h
NW (7 Bft)
Durchschnitt _ 5,1 C 91 % 1020,2 hPa #19,6 mm 7,1 km/h (2 Bft) W-NW #5:05 h #1,423 mm 0,5 UV-I 49 W/m 3,7 C 17,7 km/h (3 Bft)



© 1998 - 2019 www.pulheimwetter.de